User: anonymous   Login
Location: Unspecified
(0.0000°N, 0.0000°E)
Time: 19:27:51
(UTC+00:00)
Language:

WGS 7 (USA 263) - Orbit

View from above orbital plane
View from above orbital plane
View from above satellite
View from above satellite

Ground track
Ground track

The orbit data is extracted from the following two-line orbital elements,

1 40746U 15036A   19082.84299986 -.00000006  00000-0  00000+0 0  9997
2 40746   0.0247 147.9467 0000256 306.7091 204.8218  1.00270057 13374
Epoch (UTC): 23 March 2019 20:13:55
Eccentricity: 0.0000256
inclination: 0.0247°
perigee height: 35785 km
apogee height: 35788 km
right ascension of ascending node: 147.9467°
argument of perigee: 306.7091°
revolutions per day: 1.00270057
mean anomaly at epoch: 204.8218°
orbit number at epoch: 1337

The dashed part of the orbit path shows where the satellite is in the earth's shadow,  

DLR